Wind_Speed
18 18 18 17 17 17 17 16 16 15 15 15 15 14 14 13 12 12 12 12 12 11 11 12 12 12 12 12 12 12 11 11 11 12 12 12 11 11 11 11 11 12 12 12
19 19 19 19 18 17 17 17 16 16 16 15 15 15 14 13 13 13 13 12 12 12 12 12 12 12 13 13 12 11 11 11 11 11 11 12 11 11 11 11 11 11 11 11
19 19 20 18 18 18 18 17 17 17 16 16 15 15 14 14 13 13 13 13 13 14 13 13 12 13 13 13 12 11 11 11 11 11 11 11 11 11 11 11 11 11 11 11
21 20 19 19 18 18 18 18 18 18 17 15 15 15 15 14 14 14 14 14 14 14 14 13 13 13 13 13 12 12 12 11 12 11 11 11 11 12 12 12 12 11 11 11
22 21 20 20 19 18 18 18 18 17 16 15 15 15 16 15 15 15 15 15 15 14 15 14 14 13 13 13 13 13 12 12 12 12 12 12 12 11 11 11 11 11 12 12
23 23 22 20 20 19 19 19 18 17 17 16 15 14 16 15 16 17 16 16 16 15 15 15 15 14 14 13 13 13 13 13 13 13 12 12 12 12 12 12 12 12 12 13
24 24 23 22 22 20 20 20 19 18 17 17 16 16 16 16 17 17 18 18 18 17 16 16 16 16 15 15 14 14 15 14 14 13 13 13 13 13 13 13 13 13 13 12
25 25 24 24 23 22 21 21 21 20 19 18 18 17 18 18 18 18 18 18 19 19 18 17 17 17 16 16 16 16 15 15 15 14 14 14 13 13 13 13 14 14 13 13
27 27 26 25 25 24 23 23 22 21 20 20 19 19 19 18 18 18 18 18 19 19 18 18 18 17 17 17 17 16 16 16 15 15 15 15 14 14 14 14 15 14 14 14
28 27 27 27 26 25 24 24 23 22 21 21 21 21 20 20 20 20 19 19 20 19 19 19 18 17 17 17 18 18 18 17 16 16 16 16 15 15 15 15 15 15 14 14
28 28 27 27 27 26 25 25 24 24 23 22 23 23 22 22 21 21 21 21 20 20 20 20 19 19 18 18 19 19 19 19 19 18 17 16 16 16 16 16 16 16 15 15
28 28 28 28 28 27 26 25 25 24 24 24 24 24 24 23 23 23 23 22 22 20 20 20 20 20 19 19 19 20 20 20 19 19 18 18 18 17 17 17 16 16 16 17
28 28 28 27 27 26 26 25 26 25 25 25 25 25 25 24 24 24 24 24 23 23 22 22 22 22 22 22 21 21 21 20 20 19 19 19 18 18 18 18 17 17 17 17
27 27 28 27 26 26 26 26 25 25 25 24 24 23 23 24 24 25 25 25 25 25 24 24 24 24 24 24 23 23 22 21 21 21 20 20 20 19 18 18 18 19 18 18
27 27 27 26 26 26 26 26 25 24 24 24 23 23 24 23 23 24 25 25 24 25 25 25 25 26 26 25 24 23 22 22 22 22 22 22 21 20 20 19 19 19 19 19
26 26 26 26 26 25 26 26 25 24 24 23 24 24 24 24 23 23 24 24 25 25 25 25 26 27 26 26 25 24 24 24 23 23 22 22 21 21 21 20 20 20 19 19
25 25 25 25 25 25 25 25 25 24 24 24 24 24 24 24 24 23 24 25 25 26 26 25 26 26 25 25 25 25 24 23 23 22 22 21 21 21 21 21 20 20 19 19
24 24 24 24 25 24 25 25 24 23 24 24 24 24 24 24 23 23 23 24 24 25 25 25 24 24 24 24 24 25 24 24 23 22 22 22 21 21 21 21 21 21 20 20
25 24 24 24 25 25 24 24 24 24 24 23 23 23 23 23 23 23 24 25 25 24 24 24 24 24 24 23 24 24 25 25 24 23 23 22 22 22 22 22 22 21 22 22
24 24 24 24 24 24 24 24 23 24 23 23 23 23 23 24 24 24 24 24 24 24 23 23 23 23 23 24 24 24 24 24 24 24 24 24 24 24 24 23 23 23 23 23
22 23 23 23 23 24 24 24 24 24 24 24 24 23 23 24 23 23 23 23 23 23 23 22 22 22 22 22 23 23 23 23 23 24 24 25 25 25 25 25 25 24 24 24
22 22 23 23 22 23 23 23 23 23 24 24 24 24 24 23 22 22 22 22 22 22 21 21 21 21 21 22 23 23 23 23 24 24 25 25 26 26 26 26 26 26 25 25
21 22 22 22 22 22 23 23 23 23 23 23 23 24 24 24 23 22 22 21 21 21 21 20 20 20 21 22 22 23 23 24 24 25 25 25 25 26 26 26 26 26 26 26
21 21 21 21 21 22 22 22 21 22 22 22 22 22 23 23 23 23 23 22 22 22 22 21 22 22 22 22 23 23 23 24 24 24 24 24 24 24 24 25 25 25 25 25
20 20 21 21 20 20 21 22 22 22 22 22 22 21 22 22 22 22 23 23 22 22 22 22 22 22 22 23 23 23 23 23 24 24 23 24 24 25 24 24 23 24 24 25
19 19 20 20 20 20 21 22 22 23 23 23 22 22 22 22 22 22 23 23 22 22 22 22 22 22 22 23 23 23 23 24 24 24 23 23 23 23 23 23 23 24 24 24
18 18 19 20 20 20 21 21 22 23 24 24 23 23 23 23 24 24 23 23 23 23 23 23 23 24 24 24 23 23 23 23 23 23 24 24 24 23 23 24 24 24 25 25
Wind_Direction
280 280 280 281 282 282 282 283 284 285 284 285 284 282 280 273 267 266 265 264 263 258 256 258 260 263 268 272 277 276 274 274 277 278 274 275 275 274 276 277 278 277 276 276
280 280 278 279 280 280 281 281 282 282 283 282 280 279 275 270 267 265 265 264 262 257 255 258 263 266 269 271 276 274 272 275 278 278 275 275 276 273 274 277 279 277 278 277
278 279 278 278 278 278 278 278 278 280 282 281 277 275 273 268 264 264 264 264 262 259 256 258 263 267 270 270 272 272 271 270 275 277 275 275 277 274 274 275 277 278 278 277
277 278 277 277 276 277 276 277 277 278 280 279 276 273 273 267 261 260 261 264 267 266 265 264 265 266 266 270 268 268 269 272 274 275 275 277 277 275 274 275 275 277 278 278
275 276 277 276 277 278 278 276 275 277 277 276 274 273 271 266 261 260 261 261 263 264 267 267 265 261 262 267 269 268 270 273 275 276 275 275 274 273 274 274 275 276 276 278
273 274 275 275 275 276 278 276 276 277 277 274 272 271 270 268 263 261 260 260 261 261 263 265 265 265 267 266 269 267 267 270 273 274 274 274 273 273 272 273 278 279 278 277
270 271 273 273 273 273 272 272 275 276 275 273 270 269 267 266 262 260 259 258 261 261 261 262 264 265 268 267 268 267 265 267 271 272 271 271 271 271 271 272 276 277 277 279
267 267 269 270 270 270 269 271 273 273 272 271 269 267 266 264 261 260 259 259 260 260 260 261 263 264 266 267 266 267 265 264 265 267 269 268 268 270 270 271 274 276 275 278
265 265 266 267 268 269 269 270 270 270 270 268 268 267 265 263 261 259 257 259 259 259 261 261 261 263 265 265 264 265 265 267 264 265 267 267 269 270 270 271 274 276 276 278
263 262 264 265 267 269 269 268 267 267 266 266 267 266 264 262 262 260 256 257 257 258 261 263 264 266 266 264 262 263 264 265 265 265 267 266 267 269 271 273 273 275 275 276
260 261 262 263 266 267 267 266 265 266 267 267 267 265 263 262 261 259 258 256 257 258 260 261 262 265 265 262 262 262 264 265 267 268 267 264 264 266 268 271 272 273 275 276
261 261 261 263 264 265 265 264 264 265 265 265 265 264 262 261 259 258 258 258 258 258 259 260 260 262 262 263 263 264 266 267 267 267 267 266 265 265 267 270 273 274 275 275
260 260 261 262 263 264 263 262 261 262 263 263 263 262 261 258 259 259 259 260 260 258 257 258 260 261 261 262 264 265 265 265 264 263 263 263 264 266 268 269 271 274 272 272
259 259 260 260 260 261 260 259 259 259 260 262 263 263 263 263 263 262 260 259 258 257 256 258 258 260 261 262 264 264 263 262 262 263 262 261 262 264 268 269 268 270 268 269
258 258 259 260 260 258 258 258 258 258 258 259 261 264 264 264 263 261 258 257 257 258 259 259 259 260 261 260 261 261 260 259 260 262 263 263 263 265 267 267 268 267 266 268
259 259 259 259 258 258 258 257 257 258 258 259 261 261 261 262 262 261 259 257 257 258 259 260 260 259 259 260 260 260 259 259 260 261 262 263 262 263 265 266 267 266 266 265
258 259 259 259 257 255 256 256 256 257 258 259 259 259 260 262 263 263 260 257 256 256 257 258 258 258 259 260 261 260 259 259 260 259 259 260 261 260 262 264 265 266 267 263
257 256 256 256 253 254 256 255 255 256 258 259 259 259 260 261 261 261 261 259 259 258 259 260 260 260 260 261 260 259 258 258 258 258 258 258 258 258 260 261 263 265 265 264
256 256 255 255 253 253 255 256 256 256 257 258 259 258 258 258 258 259 261 260 259 259 259 260 261 261 261 262 260 259 258 258 258 257 256 255 255 257 259 261 263 264 265 264
257 258 257 257 255 254 255 257 258 257 255 255 256 257 259 260 260 260 261 259 257 258 260 261 261 262 262 262 262 261 260 259 258 257 257 256 257 258 258 260 262 265 264 263
256 255 254 255 255 256 257 257 259 257 254 255 256 257 258 258 260 260 260 258 257 259 261 261 261 262 262 261 259 258 259 259 260 259 260 260 261 260 260 261 263 264 262 262
255 254 254 254 255 253 254 255 257 258 256 257 258 259 259 259 260 259 257 257 258 259 260 262 262 262 261 259 257 257 259 260 261 261 262 262 263 262 261 262 265 264 261 261
256 255 254 254 254 251 252 254 256 257 257 257 257 258 259 258 258 258 257 258 259 260 262 263 264 263 261 259 258 258 258 259 260 261 262 263 262 260 260 261 262 260 259 259
257 256 255 254 254 252 253 254 256 257 258 257 257 257 257 257 257 257 257 258 260 261 261 262 263 263 263 262 260 258 259 260 260 261 261 261 260 260 260 260 261 260 260 261
258 256 256 256 255 255 254 254 254 256 257 258 258 258 257 257 257 257 259 259 259 260 261 261 261 261 263 263 261 259 260 260 259 260 262 262 261 260 260 259 260 260 260 261
260 260 259 260 260 260 258 257 256 256 256 257 257 258 258 258 258 259 259 258 258 259 261 262 262 260 262 263 261 259 261 262 262 262 263 264 263 262 261 261 261 261 261 261
263 262 262 263 264 264 260 259 258 256 255 254 254 255 257 258 260 260 260 261 260 260 262 264 266 265 263 261 260 261 263 264 264 263 263 263 263 262 263 263 263 263 263 263
Height
5807 5806 5805 5804 5803 5802 5800 5799 5799 5798 5797 5796 5794 5793 5792 5792 5792 5792 5792 5793 5793 5793 5793 5793 5793 5793 5793 5792 5791 5791 5791 5790 5790 5790 5789 5789 5788 5787 5786 5786 5785 5784 5783 5782
5802 5800 5799 5798 5797 5796 5795 5794 5793 5792 5792 5791 5790 5789 5788 5787 5787 5788 5788 5789 5789 5789 5789 5789 5789 5789 5789 5789 5788 5788 5787 5787 5787 5786 5786 5785 5785 5784 5783 5782 5781 5780 5780 5779
5796 5795 5794 5793 5792 5791 5790 5789 5789 5788 5788 5786 5785 5784 5783 5783 5783 5783 5784 5784 5785 5785 5785 5785 5785 5785 5785 5785 5785 5784 5784 5784 5784 5783 5782 5782 5781 5781 5780 5779 5779 5778 5777 5776
5790 5789 5788 5790 5787 5786 5785 5784 5783 5782 5781 5781 5780 5779 5778 5778 5778 5779 5780 5780 5781 5781 5781 5782 5782 5782 5782 5782 5781 5781 5781 5780 5780 5780 5779 5779 5778 5778 5777 5777 5776 5775 5774 5774
5783 5783 5782 5782 5781 5781 5780 5779 5778 5777 5777 5776 5775 5775 5774 5774 5774 5775 5775 5776 5776 5777 5777 5777 5778 5778 5778 5778 5778 5778 5777 5777 5777 5776 5776 5775 5775 5774 5774 5773 5773 5772 5772 5771
5776 5776 5776 5777 5775 5775 5775 5773 5773 5772 5771 5771 5770 5771 5770 5770 5770 5770 5771 5772 5772 5772 5773 5773 5773 5774 5774 5774 5774 5774 5774 5773 5773 5773 5772 5772 5771 5771 5771 5770 5770 5769 5768 5768
5769 5769 5769 5769 5768 5769 5770 5769 5767 5766 5766 5766 5765 5766 5766 5765 5765 5766 5766 5767 5768 5768 5768 5769 5769 5770 5770 5770 5770 5770 5770 5769 5769 5769 5768 5768 5767 5767 5767 5767 5766 5766 5765 5764
5762 5762 5764 5762 5762 5762 5762 5761 5760 5760 5760 5760 5760 5759 5760 5760 5760 5761 5761 5762 5762 5763 5764 5764 5765 5765 5765 5765 5765 5765 5765 5765 5765 5765 5764 5764 5764 5764 5763 5763 5763 5762 5761 5760
5755 5756 5755 5754 5754 5754 5754 5754 5754 5754 5753 5753 5754 5754 5754 5754 5755 5755 5756 5756 5757 5758 5758 5759 5759 5760 5760 5760 5760 5760 5761 5761 5760 5760 5760 5760 5760 5760 5759 5759 5759 5758 5757 5756
5745 5746 5746 5746 5746 5746 5746 5746 5746 5747 5747 5747 5747 5747 5748 5748 5749 5749 5750 5751 5752 5752 5753 5754 5754 5754 5755 5755 5755 5755 5756 5756 5756 5756 5756 5756 5755 5755 5755 5755 5754 5754 5753 5752
5736 5737 5737 5738 5738 5738 5739 5739 5739 5739 5740 5740 5740 5740 5741 5742 5742 5743 5744 5745 5745 5746 5747 5748 5749 5749 5749 5750 5750 5750 5750 5750 5750 5750 5751 5751 5751 5751 5751 5750 5750 5749 5749 5748
5727 5728 5728 5729 5729 5730 5730 5731 5731 5731 5732 5732 5733 5733 5734 5734 5735 5736 5737 5738 5739 5740 5741 5742 5743 5743 5744 5744 5745 5745 5745 5745 5745 5745 5745 5745 5745 5745 5745 5745 5745 5744 5744 5743
5718 5718 5719 5720 5720 5721 5722 5722 5723 5723 5724 5725 5725 5726 5726 5727 5728 5729 5730 5731 5732 5733 5734 5735 5736 5737 5737 5738 5738 5738 5739 5739 5739 5739 5739 5739 5739 5739 5739 5739 5739 5739 5738 5738
5708 5709 5710 5711 5712 5712 5713 5714 5714 5715 5716 5717 5718 5718 5719 5720 5720 5721 5722 5723 5724 5726 5727 5728 5729 5729 5730 5731 5731 5731 5732 5732 5732 5732 5733 5733 5733 5733 5733 5733 5733 5733 5732 5732
5699 5700 5701 5702 5703 5704 5704 5705 5706 5707 5708 5709 5710 5711 5712 5712 5713 5713 5714 5715 5716 5718 5718 5719 5720 5721 5722 5722 5723 5723 5724 5725 5725 5726 5726 5726 5727 5727 5727 5727 5726 5726 5726 5726
5690 5691 5692 5693 5694 5695 5697 5698 5699 5700 5701 5702 5703 5703 5704 5705 5705 5706 5706 5707 5709 5710 5710 5711 5712 5713 5713 5714 5715 5716 5717 5717 5718 5718 5719 5719 5720 5720 5720 5720 5720 5720 5720 5720
5682 5683 5684 5685 5686 5687 5689 5690 5691 5693 5693 5694 5695 5696 5696 5697 5698 5698 5699 5699 5700 5701 5702 5703 5703 5704 5705 5706 5707 5708 5709 5709 5710 5711 5711 5712 5712 5713 5713 5713 5713 5714 5713 5713
5673 5675 5676 5677 5678 5679 5681 5682 5683 5684 5685 5686 5687 5688 5688 5689 5690 5690 5691 5692 5693 5693 5694 5695 5695 5696 5697 5698 5699 5700 5701 5701 5702 5703 5704 5705 5705 5706 5706 5706 5707 5707 5707 5707
5665 5666 5668 5669 5670 5672 5673 5674 5675 5676 5677 5678 5679 5680 5681 5681 5682 5683 5684 5684 5685 5686 5687 5687 5688 5688 5689 5690 5691 5691 5692 5693 5694 5695 5696 5697 5698 5698 5699 5699 5699 5699 5700 5700
5657 5658 5659 5660 5662 5663 5664 5666 5667 5668 5669 5670 5672 5672 5673 5674 5675 5675 5676 5677 5677 5678 5679 5679 5680 5681 5681 5682 5682 5683 5684 5685 5686 5687 5688 5689 5690 5690 5691 5691 5692 5692 5692 5693
5649 5651 5652 5653 5654 5655 5657 5658 5659 5660 5662 5663 5664 5665 5666 5666 5667 5668 5669 5669 5670 5671 5671 5672 5672 5673 5673 5674 5674 5675 5676 5677 5678 5679 5680 5681 5681 5682 5682 5683 5683 5684 5684 5685
5642 5643 5644 5645 5646 5648 5649 5650 5652 5653 5654 5655 5657 5657 5658 5659 5660 5660 5661 5662 5663 5663 5664 5664 5664 5665 5665 5666 5666 5667 5669 5670 5670 5671 5672 5672 5673 5673 5674 5674 5675 5675 5676 5677
5635 5636 5637 5638 5639 5641 5642 5643 5644 5646 5647 5648 5649 5650 5651 5652 5653 5653 5654 5655 5655 5656 5656 5657 5657 5658 5658 5659 5659 5660 5661 5662 5662 5663 5663 5664 5664 5664 5665 5665 5666 5666 5667 5668
5628 5629 5630 5631 5632 5633 5635 5636 5637 5638 5639 5641 5642 5643 5644 5645 5645 5646 5647 5648 5648 5649 5649 5650 5650 5650 5651 5651 5652 5652 5653 5654 5654 5655 5655 5655 5655 5656 5656 5656 5657 5658 5658 5659
5622 5623 5623 5624 5625 5626 5627 5629 5630 5631 5632 5633 5634 5635 5636 5637 5638 5639 5640 5641 5641 5642 5642 5643 5643 5643 5643 5643 5644 5644 5645 5646 5646 5646 5647 5647 5647 5647 5648 5648 5648 5649 5649 5650
5615 5616 5617 5618 5619 5620 5620 5621 5622 5623 5625 5626 5627 5628 5629 5630 5631 5632 5633 5634 5634 5635 5635 5635 5635 5635 5635 5636 5636 5636 5637 5637 5638 5638 5638 5639 5639 5639 5640 5640 5640 5641 5641 5641
5609 5610 5611 5611 5612 5612 5613 5614 5615 5616 5617 5618 5619 5621 5622 5623 5623 5624 5625 5626 5626 5627 5627 5627 5627 5627 5627 5627 5628 5628 5628 5629 5629 5629 5630 5630 5631 5631 5632 5632 5632 5632 5632 5633